Regional Weather Roundup
Issued by NWS

Home | Current Version | Previous Version | Graphics & Text | Print | Product List | Glossary On
Versions: 1 2 3 4 5 6 7 8 9 10 11 12 13 14 15 16 17 18 19 20 21 22 23 24 25 26 27 28 29 30 31 32 33 34 35 36 37 38 39 40 41 42 43 44 45 46 47 48 49 50
000
ASUS43 KDMX 272201
RWRIA

WEATHER ROUNDUP FOR IOWA
NATIONAL WEATHER SERVICE DES MOINES IA
500 PM CDT TUE JUN 27 2017

NOTE: "FAIR" INDICATES FEW OR NO CLOUDS BELOW 12,000 FEET WITH NO
SIGNIFICANT WEATHER AND/OR OBSTRUCTIONS TO VISIBILITY.

* - THESE STATIONS ARE NOT NWS STATIONS...THUS NOT UNDER NWS
QUALITY CONTROL.  THEY ALSO DO NOT REPORT WEATHER SUCH
AS PRECIPITATION OR FOG.

IAZ001>003-012>014-020>022-031>034-043>046-272300-
   NORTHWEST IOWA

CITY           SKY/WX    TMP DP  RH WIND       PRES   REMARKS
CARROLL *      SUNNY     81  55  41 S17G26    29.91F HX  80
CHEROKEE *     SUNNY     79  54  41 S20       29.86F
DENISON *      SUNNY     79  59  50 S16G28    29.90F HX  80
LE MARS *      SUNNY     81  57  44 S21G33    29.82F HX  81
ORANGE CITY *  SUNNY     81  54  39 S17G24    29.82F HX  80
SHELDON *      SUNNY     79  52  38 S20G26    29.82F
SIOUX CITY     SUNNY     81  60  48 S23G31    29.82F HX  82
SPENCER        SUNNY     80  45  28 SE24      29.88F
STORM LAKE *   SUNNY     77  54  44 S15G24    29.89F
$$

IAZ055>058-069>071-079>083-090>094-272300-
   SOUTHWEST IOWA

CITY           SKY/WX    TMP DP  RH WIND       PRES   REMARKS
ATLANTIC *     SUNNY     79  59  50 S16G25    29.91F HX  80
AUDUBON *      SUNNY     79  61  53 S12G18    29.92F HX  80
CLARINDA *     MOSUNNY   81  64  57 S15       29.94F HX  82
COUNCIL BLFS * SUNNY     79  64  61 SE22      29.89F HX  81
CRESTON *      SUNNY     79  59  50 S17G23    29.96F HX  80
HARLAN  *      SUNNY     79  61  53 S17G28    29.92F HX  80
LAMONI         SUNNY     78  59  51 S13G21    29.97F
RED OAK *      SUNNY     79  63  57 S16G24    29.91F HX  80
SHENANDOAH *   MOSUNNY   77  63  61 S14G22    29.91F
$$

IAZ047>049-059>061-072>074-084-272300-
   CENTRAL IOWA

CITY           SKY/WX    TMP DP  RH WIND       PRES   REMARKS
AMES           MOSUNNY   77  54  44 S15       29.96F
ANKENY *       MOSUNNY   77  54  44 SE14      29.97F
BOONE *        MOSUNNY   77  52  41 S13       29.94F
CHARITON *     MOSUNNY   79  54  41 S15       29.97F
DES MOINES     PTSUNNY   80  51  36 SE15      29.95F HX  80
GRINNELL*      SUNNY     76  46  33 S12       30.00F
KNOXVILLE *    CLOUDY    77  52  41 SE16      29.97F
MARSHALLTOWN   SUNNY     76  47  35 S13       29.97F
NEWTON *       SUNNY     75  48  38 S14       29.98F
PELLA *        CLOUDY    77  47  34 SE9       30.00F
PERRY *          N/A     78  48  34 S13       29.94F
$$

IAZ004>006-015-016-023>025-035-036-272300-
   NORTH CENTRAL IOWA

CITY           SKY/WX    TMP DP  RH WIND       PRES   REMARKS
ALGONA *       SUNNY     77  46  33 S18       29.92F
CLARION *        N/A     77  46  33 S18G24    29.95F
ESTHERVILLE    SUNNY     74  47  38 S22G28    29.89F
FORT DODGE *   SUNNY     79  48  34 S10G23    29.95F
MASON CITY     SUNNY     76  44  32 S15       29.97F
FOREST CITY *    N/A     77  27  15 S15G24    29.95F
WEBSTER CITY * SUNNY     77  48  36 S20G25    29.93F
IOWA FALLS *     N/A     76  45  32 SE17G23   29.98F
$$

IAZ007>011-017>019-026>030-037>042-050>054-066-272300-
   NORTHEAST IOWA

CITY           SKY/WX    TMP DP  RH WIND       PRES   REMARKS
CEDAR RAPIDS   SUNNY     75  46  35 SE10G20   30.01F
CHARLES CITY * SUNNY     75  39  27 S14       29.98F
CLINTON *      SUNNY     74  49  41 S7        30.05F
DECORAH *      MOSUNNY   73  45  35 VRB7      29.99F
DUBUQUE        SUNNY     73  46  38 SW12      30.04F
MONTICELLO *   MOSUNNY   75  46  35 SE9       30.02F
OELWEIN *      SUNNY     75  45  33 S13       30.01F
WATERLOO       SUNNY     76  41  28 S14       29.98F
$$

IAZ064-065-067-068-078-272300-
   EAST CENTRAL IOWA

CITY           SKY/WX    TMP DP  RH WIND       PRES   REMARKS
IOWA CITY      MOSUNNY   78  44  29 S10       30.03F
MT. PLEASANT * SUNNY     78  43  28 S10       30.03F
MUSCATINE *    SUNNY     79  43  27 SE8G17    30.03F
QUAD CITIES    SUNNY     76  46  34 SW10      30.04F
$$

IAZ062-063-075>077-085>089-095>099-272300-
   SOUTHEAST IOWA

CITY           SKY/WX    TMP DP  RH WIND       PRES   REMARKS
BURLINGTON     SUNNY     77  48  35 S9        30.04F
FAIRFIELD *    SUNNY     79  43  27 S12G18    30.01F
FORT MADISON * SUNNY     77  50  38 S7        30.04F
KEOKUK *       SUNNY     77  48  36 S10       30.03F
OSKALOOSA *      N/A     77  48  36 S12       30.00F
OTTUMWA        SUNNY     78  49  35 S10       29.99F
WASHINGTON *   SUNNY     77  48  36 S10G16    30.03F
$$

ABBREVIATIONS USED IN REMARKS
   TC - TEMPERATURES IN CELSIUS
  WCI - WIND CHILL INDEX
   HX - HEAT INDEX
  VSB - VISIBILITY
$$




USA.gov is the U.S. government's official web portal to all federal, state and local government web resources and services.